FO-20
1 20480U 90013C   03162.90139535  .00000004  00000-0  73113-4 0 05061
2 20480 099.0654 104.4496 0540833 107.2095 258.8918 12.83333488625056
 
 ¡¡¢£ µ°Æ»Í×ÁÇ£² ¡§½Ðŵ¤Ï£Æ£Ï¡Ý£²£¹¡Ö¤Õ¤¸£³¹æ¡×¤ËƱ¤¸¡¥
               
Satellite: FO-20
Catalog number: 20480
Epoch time:      03162.90139535
Element set:    0506
Inclination:      099.0654 deg
RA of node:       104.4496 deg
Eccentricity:    0.0540833
Arg of perigee:   107.2095 deg
Mean anomaly:     258.8918 deg
Mean motion:   12.83333488 rev/day
Decay rate:        4.0e-08 rev/day^2
Epoch rev:           62505
Checksum:              300
--------------------------------------------------------------------
¡¡        ¢£ ¤Õ¤¸£²¹æ¡¿£Æ£Ï¡Ý£²£°/JAS-1£â ¢£  ¡¡   
            
¡¡¡¡¡¡¡¡¡¡¡¡¡¡¡¡¡¡¡¡¡Ö¤Õ¤¸£²¹æ¡×¡¡¸½¶·                          
                                                                     
   JAS-1b¡Ê¤Õ¤¸£²¹æ¡Ë¤Î£Ã£×¥Æ¥ì¥á¥È¥ê¿®¹æ¤Ë¡¤£±£¹£¹£·Ç¯£±£°·î£±
£²Æü£±£²»þ¡Ê£Ê£Ó£Ô¡Ë¤ÎÆüËܾå¶õÄ̲á»þ¡¤£³·å¤Î¿ô»ú¤¬·«¤êÊÖ¤µ¤ì¤ë
¤Ï¤º¤¬£³¸Ä¤ÎĹ²»¤Î·«¤êÊÖ¤·¤È¤Ê¤Ã¤Æ¤¤¤ë¤È¤¤¤¦°Û¾ï¤¬È¯¸«¤µ¤ì¤Þ¤·¤¿¡£
¤³¤ÎÉÔ¶ñ¹ç¤Ï¼¡¤ÎÄ̲á»þ¤«¤é¤Ï²óÉü¤·¤Æ¤¤¤Þ¤·¤¿¤¬£±£³Æü£±£µ»þ£²£°Ê¬¤Î
Ä̲á»þ¤ËºÆ¤Ó´Ñ¬¤µ¤ì¤Þ¤·¤¿¡£¸½ºß¤Ï£Á£°¤ÎÁ÷¿®¤¬Â³¤¤¤Æ¤¤¤Þ¤¹¡£±Ò
À±¤Î¥¢¥Ê¥í¥°·ÏÃæ·Ñ¥â¡¼¥Éưºî¤Ï°Û¾ï¤¬Ìµ¤¯¡¤Àµ¾ï»þ¤Î¥Æ¥ì¥á¥È¥êÆâÍÆ
¤«¤é¤Ï±ÒÀ±¤Îưºî¤Ë°Û¾ï¤Ïǧ¤á¤é¤ì¤Þ¤»¤ó¡£½¾¤Ã¤Æ¡¤Ä¾¤Á¤Ë±ÒÀ±¤Î
¥ß¥Ã¥·¥ç¥ó¤Ë±Æ¶Á¤¹¤ë¤³¤È¤Ï̵¤¤¤ÈͽÁÛ¤µ¤ì¤Þ¤¹¤Î¤Ç¡¤ÅöÌ̤ϥ¢¥Ê¥í¥°·Ï
Ãæ·Ñ¡¡¥â¡¼¥É¤ò·Ñ³¤·¤Þ¤¹¡£±ÒÀ±¤Ï´û¤ËÂǤÁ¾å¤²¤Æ¤«¤é£·Ç¯£¸¥ö·î¤ò·Ð¤Æ¤ª
¤ê¤Þ¤¹¤Î¤Ç¡¤º£¸å¤Ï´Æ»ë¤ò¶¯²½¤¹¤ëͽÄê¤Ç¤¹¡£¥¢¥Þ¥Á¥å¥¢³Æ°Ì¤Î¥ì¥Ý¡¼¥È¤ò
¤ªÂÔ¤Á¤·¤Þ¤¹¡£
¡¡--------------------------------------------------------------------
-- 
¡¡¡¡1997ǯ10·î14Æü¡¡00»þ35ʬ ³Îǧ¤Î¥Æ¥ì¥á¥È¥ê²» 151 KB ¡Ê£Á£°¡Ë 
¡¡¡¡1997ǯ10·î14Æü¡¡11»þ10ʬ ³Îǧ¤Î¥Æ¥ì¥á¥È¥ê²» 216 KB ¡Ê°Û¾ï¥¡¼¥¤¥ó¥°¡Ë 
  °Ê¾å¡¡£Ê£Á£Ò£Ì¤Î¥Û¡Ý¥à¥Ú¡¼¥¸¤Î http://www.jarl.or.jp/Japanese/3_Fuji/new/fuji.
htm
===================== FO-20¡¡¤Õ¤¸£²¹æ¡¡¤Î¥Æ¥ì¥á¥È¥ê´Ñ¬·ë²Ì¡¡===================
=
  £±£²·î£²£°Æü¡Ê¶â¡Ë£±£³¡§£µ£¹¡ÊJST)¤Î´Ñ¬·ë²Ì¤Ç¤Ï¥Æ¥ì¥á¥È¥ê¤Ï¡¢
°ÊÁ°´Ñ¬¤·¤¿Ã±°ì¼þÇÈ¿ô¤Î
Àµ¸¹ÇȤ¬¥É¥Ã¥×¥é¡¼¸ú²Ì¤Ç¼þÇÈ¿ô¤¬¤º¤ì¤Æ¤¤¤¯¤Î¤ß¤Î¾õÂ֤Ǥ·¤¿¡£
                                         
   =============   JAS-2 ¡Ê¤Õ¤¸£³¹æ¡Ë¤È¸½ºß¤Þ¤Ç¤Î¾ðÊó   ========
  £Á¡¥ÅÅÏäˤè¤ë¤Õ¤¸£³¹æ¤Î±¿ÍѾðÊó
      ¼ÒÃÄË¡¿ÍÆüËÜ¥¢¥Þ¥Á¥å¥¢Ï¢ÌÁ¤Ë¤è¤ë¥µ¡¼¥Ó¥¹
           £Ô£Å£Ì ¡¥   £°£³¡Ý £³£¹£´£² ¡Ý £±£°£°£°
  £Â¡¥¥¢¥Þ¥Á¥å¥¢ÌµÀþ£Æ£Á£Ø¥µ¡¼¥Ó¥¹
      £Ê£Á£Ò£Ì¤Ë¤è¤ë¤Õ¤¸£³¹æ¤Îµ°Æ»¾ðÊó¡Ê¥ª¡¼¥Ó¥Ã¥È¥«¥ì¥ó¥À¡¼¡Ë
         £Æ£Á£Ø £Î£ï¡¥  £°£³¡Ý £³£²£³£³ ¡Ý£°£°£µ£µ
  £Ã¡¥£×£×£×¥Ö¥é¥¦¥¶¤Ç¾ðÊó¤ò´Êñ¤Ë¸«¤ì¤ë¿Í¤Î¤¿¤á¤Ë£Ê£Á£Ó-1,£Ê£Á£Ó¡¾£±£â,
¡¡¡¡¡¡£Ê£Á£Ó¡¾£²¡Ê¤Õ¤¸£±¹æ¤«¤é¤Õ¤¸£³¹æ¤Î±ÒÀ±¤È¤·¤Æ¤Î±¿ÍѤµ¤ì¤ë¤Þ¤Ç¤Î̾Á°¡Ë¤Î
¡¡¡¡¡¡³µÍס¢ÂǤÁ¾å¤²¤Þ¤Ç¤Î¾õ¶·¡¢±¿ÍÑÃæ¤Ë¤ª¤±¤ë¾õ¶·¤òÀâÌÀ¤·¤¿¥Û¡¼¥à¥Ú¡¼¥¸¤ò
¡¡¡¡¡¡¾Ò²ð¤·¤Æ¤ª¤¤Þ¤¹¡¥
    ¡ ¼ÒÃÄË¡¿ÍÆüËÜ¥¢¥Þ¥Á¥å¥¢ÌµÀþÏ¢ÌÁ¡Ê£Ê£Á£Ò£Ì¡Ë¤Î¥Û¡¼¥à¥Ú¡¼¥¸
         http://www.jarl.or.jp/Japanese/3_Fuji/new/fuji.htm
¡¡¡¡¡¡¡¡ http://www.jarl.or.jp/Japanese/3_Fuji/history/history.htm
 
    ¢ ±§Ã賫ȯ»ö¶ÈÃġʣΣÁ£Ó£Ä£Á¡Ë¥Û¡¼¥à¥Ú¡¼¥¸ 
      1)¡Ö¤Õ¤¸£±¹æ¡×¡Ê£Ê£Á£Ó¡Ý£±¡§£Æ£Ï¡Ý£±£²¡Ë
         http://spaceboy.nasda.go.jp/lib/satellites/jas/j/jas_01j.html
         http://spaceboy.nasda.go.jp/lib/satellites/jas/g/h_15017.jpg
         http://spaceboy.nasda.go.jp/lib/satellites/jas/e/jas_01e.html
         http://space.nasda.go.jp/db/kaihatu/eisei/eisei_j/jas_1a_j.html#2
         http://spaceboy.nasda.go.jp/note/eisei/j/eis15h_j.html#eis15h_01_j
         http://www.nasda.go.jp/lib/nasda-news/1996/12/resai_j.html
         http://spaceboy.nasda.go.jp/lib/satellites/jas/g/h_15007.jpg
         http://www.nasda.go.jp/press/2002/02/pb_020220_j.html
      2)¡Ö¤Õ¤¸£²¹æ¡×¡Ê£Ê£Á£Ó¡Ý£±£â¡§£Æ£Ï¡Ý£²£°¡Ë
         http://spaceboy.nasda.go.jp/lib/satellites/mos/g/h_21018.jpg
         http://spaceboy.nasda.go.jp/lib/satellites/mos/g/h_21019.jpg
         http://spaceboy.nasda.go.jp/note/eisei/j/eis15h_j.html#eis15h_01_j
      3)¡Ö¤Õ¤¸£³¹æ¡×¡Ê£Ê£Á£Ó¡Ý£²¡§£Æ£Ï¡Ý£²£¹¡Ë
         http://www.nasda.go.jp/lib/nasda-news/1996/09/h2_j.html
¡¡¡¡¡¡  http://www.nasda.go.jp/pr/services/presskit/h2-f4/p-h23_e.html
         http://space.nasda.go.jp/db/kaihatu/eisei/eisei_j/jas-2j.html
         http://spaceboy.nasda.go.jp/note/eisei/j/eis15i_j.html#eis15i_03_j
¡¡¡¡¡¡£Âç³Ø±§Ã蹩³Ø¥³¥ó¥½¡¼¥·¥¢¥à¥Û¡¼¥à¥Ú¡¼¥¸
¡¡¡¡¡¡¡¡ÅìµþÂç³Ø¡¦Åìµþ¹©¶ÈÂç³Ø¤Î¾®·¿±ÒÀ±ÂǤÁ¾å¤²À®¸ù¤Ëȼ¤¤³èȯ¤Ê³èư¤¬
¡¡¡¡¡¡¡¡»Ï¤Þ¤ê¤Þ¤·¤¿¡£
¡¡¡¡¡¡¡¡http://www.unisec.jp/
  £Ä¡¥£Ê£Á£Í£Ó£Á£Ô¤Ë¤è¤ëµ°Æ»¾ðÊó¤Î³èÍÑ
        JAMSAT¤Î¥Û¡¼¥à¥Ú¡¼¥¸¤Þ¤¿¤Ïjamsat¡Ýkeps¤Îµ°Æ»Í×ÁǤè¤ê
      ±ÒÀ±¤Îµ°Æ»¾ðÊó¤òÆÀ¤ë¡¥
     £Ê£Á£Í£Ó£Á£Ô¥Û¡¼¥à¥Ú¡¼¥¸
               £Õ£Ò£Ì    http://www.jamsat.or.jp
       ¾åµ¥Û¡¼¥à¥Ú¡¼¥¸¤Ç¤Ï³ÆÃϤǹԤï¤ì¤ë¥¢¥Þ¥Á¥å¥¢ÄÌ¿®±ÒÀ±¤Ë´Ø¤¹¤ë
      ¥ß¥å¡¼¥Æ¥£¥ó¥°¤Î¤ªÃΤ餻¤äÀ¤³¦¤Î¥¢¥Þ¥Á¥å¥¢±ÒÀ±¤Ë´Ø¤¹¤ë¾ðÊó¤¬
      ËþºÜ¤µ¤ì¤Æ¤¤¤Þ¤¹¡¥
¡¡========================================================================  
¡¡    £Ê£Á£Í£Ó£Á£Ô¤Î¥á¥ó¥Ð¡¼¤Î¤´¶¨ÎϤˤè¤ê£Ê£È£¶£Í£Í£Å¡Ê¹â»³ ½¨Â¤¡Ë¤¬
    ¼¹É®¡¦ÊÔ½¸¤òôÅö¤·¤Æ¤ª¤ê¤Þ¤¹¡¥¤´»ØÅ¦¤Î°Õ¸«¡¢µ¿Ìä¤ä¤³¤Î¤è¤¦¤Ë¤·¤¿¤é
    ¤È¤¤¤¦¥¢¥¤¥Ç¥¢¤¬¤¢¤ê¤Þ¤·¤¿¤é¾®¤µ¤Ê¤³¤È¤Ç¤â¤«¤Þ¤¤¤Þ¤»¤ó¤Î¤Çµ¤·Ú¤Ë²¼
    µ¥¢¥É¥ì¥¹¤Þ¤Ç¤´Ï¢Íí¤¯¤À¤µ¤¤¡¥£ê£á£í£ó£á£ô¡Ý£î£å£÷£ó¤«¤é£ê£á£ó£²
    £é£î£æ£ï¤Ø¤ÎžºÜ¤ò£Ê£È£´£Ð£È£×¶Éºä°æ¤µ¤ó¤ËôÅö¤·¤ÆÄº¤¤¤Æ¤ª¤ê¤Þ¤¹¡¥  
                  E-mail : jh6mme@jamsat.or.jp : jh4phw@jamsat.or.jp
 ===============================   £Å£Î£Ä  ===============================